"Pseudo-MPEC" for P116eLw

Created 2020 Sep 16 20:07:46 UT using Find_Orb

Click here for an explanation of pseudo-MPECs

 
 Astrometry: 
     P116eLw  C2020 09 15lc;GL8;_AstrometryGM_/_sQ-.%C'xNc!8':5nB:%8b,*Wk++*;F51
     P116eLw  C2020 09 15D#lQeredacted;KtmIH0$;k*_4nbIclicksE.$OIH-or@Nhere?iF51
     P116eLw  C2020 09 15wOGl@?vZTVZHOvRo!`NP0v]%P0F%OiV%ky0R3d.mf]CB5mCvAN`=F51
     P116eLw  C2020 09 15eeHueMKU]for*F_]07quE;]b^rU[explanationHP/.mOtoJ_BOnF51
     P116eLw ^C2020 09 16.30713220 44 59.453-24 37 36.56   ~9G8M 21.60GVNEOCP568
     P116eLw ^C2020 09 16.30808020 44 59.412-24 37 36.10   ~9G8M 21.67GVNEOCP568
     P116eLw ^C2020 09 16.30903020 44 59.367-24 37 35.61   ~9G8M 21.82GVNEOCP568

Station data:
(568) Mauna Kea  (N19.826116 W155.472200)  US/Hawaii.
(F51) Pan-STARRS 1, Haleakala  (N20.707235 W156.255910)  US/Hawaii.
   Observers N. Primak, A. Schultz, S. Watters, J. Thiel, T. Goggia. Measurer
   PS1 Science Consortium. 1.8-m Ritchey-Chrétien + CCD.

Orbital elements:  P116eLw
   Perihelion 2021 Sep 7.599445 +/- 298 TT = 14:23:12 (JD 2459465.099445)
Epoch 2020 Sep 16.0 TT = JDT 2459108.5   Earth MOID: 0.3842   AutoNEOCP
M 220.75041743 +/- 110              (J2000 ecliptic)
n   0.39049298 +/- 0.251            Peri.  144.51951 +/- 80
a   1.85379009 +/- 0.795            Node   335.85665 +/- 10
e   0.2792449 +/- 0.254             Incl.   22.12116 +/- 21
P   2.52/921.89d           H 18.4   G  0.15   U 11.8  SR
q 1.33612849 +/- 1.22    Q 2.37145169 +/- 54.1
From 7 observations 2020 Sept. 15-16 (25.4 hr); mean residual 0".15
Residuals in arcseconds: 
200915 F51  .28-  .16-    200915 F51  .38+  .18+    200916 568  .02+  .00     
200915 F51  .07-  .00     200916 568  .05-  .00     
200915 F51  .02-  .02-    200916 568  .01+  .01-    

Ephemerides (geocentric):
Date (UTC) HH   RA              Dec         delta   r     elong  mag " sig PA
---- -- -- --  -------------   -----------  ------ ------ -----  --- ---- ---
2020 09 16 20  20 44 35.880   -24 33 07.77  1.4874 2.2905 132.6 22.0 5.59 155
2020 09 16 21  20 44 34.043   -24 32 46.75  1.4878 2.2904 132.5 22.0 6.10 157
2020 09 16 22  20 44 32.210   -24 32 25.72  1.4881 2.2903 132.5 22.0 6.64 159
2020 09 16 23  20 44 30.381   -24 32 04.68  1.4884 2.2903 132.4 22.0 7.20 160
2020 09 17 00  20 44 28.556   -24 31 43.64  1.4888 2.2902 132.4 22.0 7.79 162
2020 09 17 01  20 44 26.736   -24 31 22.59  1.4891 2.2902 132.4 22.0 8.39 163
2020 09 17 02  20 44 24.920   -24 31 01.52  1.4895 2.2901 132.3 22.0 9.02 164
2020 09 17 03  20 44 23.109   -24 30 40.45  1.4898 2.2900 132.3 22.0 9.67 165
2020 09 17 04  20 44 21.301   -24 30 19.37  1.4901 2.2900 132.2 22.0 10.3 166
2020 09 17 05  20 44 19.498   -24 29 58.28  1.4905 2.2899 132.2 22.0 11.0 166
2020 09 17 06  20 44 17.700   -24 29 37.18  1.4908 2.2898 132.1 22.0 11.8 167
2020 09 17 07  20 44 15.905   -24 29 16.07  1.4912 2.2898 132.1 22.0 12.5 168
2020 09 17 08  20 44 14.115   -24 28 54.96  1.4915 2.2897 132.0 22.0 13.3 168
2020 09 17 09  20 44 12.329   -24 28 33.83  1.4919 2.2896 132.0 22.0 14.0 169
2020 09 17 10  20 44 10.547   -24 28 12.70  1.4922 2.2896 132.0 22.0 14.8 169
2020 09 17 11  20 44 08.770   -24 27 51.56  1.4925 2.2895 131.9 22.0 15.6 170
2020 09 17 12  20 44 06.997   -24 27 30.41  1.4929 2.2894 131.9 22.0 16.5 170
2020 09 17 13  20 44 05.228   -24 27 09.25  1.4932 2.2894 131.8 22.0 17.3 171
2020 09 17 14  20 44 03.464   -24 26 48.08  1.4936 2.2893 131.8 22.0 18.2 171
2020 09 17 15  20 44 01.703   -24 26 26.91  1.4939 2.2893 131.7 22.0 19.1 171
2020 09 17 16  20 43 59.947   -24 26 05.72  1.4943 2.2892 131.7 22.0 20.0 172
2020 09 17 17  20 43 58.196   -24 25 44.53  1.4946 2.2891 131.6 22.0 21.0 172
2020 09 17 18  20 43 56.448   -24 25 23.33  1.4949 2.2891 131.6 22.0 21.9 172
2020 09 17 19  20 43 54.705   -24 25 02.12  1.4953 2.2890 131.6 22.0 22.9 172
2020 09 17 20  20 43 52.966   -24 24 40.90  1.4956 2.2889 131.5 22.0 23.9 172
2020 09 17 21  20 43 51.232   -24 24 19.67  1.4960 2.2889 131.5 22.0 24.9 173
2020 09 17 22  20 43 49.502   -24 23 58.44  1.4963 2.2888 131.4 22.0 26.0 173
2020 09 17 23  20 43 47.776   -24 23 37.19  1.4967 2.2887 131.4 22.0 27.0 173
2020 09 18 00  20 43 46.054   -24 23 15.94  1.4970 2.2887 131.3 22.0 28.1 173
2020 09 18 01  20 43 44.337   -24 22 54.68  1.4974 2.2886 131.3 22.0 29.2 173
2020 09 18 02  20 43 42.624   -24 22 33.41  1.4977 2.2885 131.2 22.0 30.3 174
2020 09 18 03  20 43 40.915   -24 22 12.13  1.4981 2.2885 131.2 22.0 31.5 174
2020 09 18 04  20 43 39.210   -24 21 50.85  1.4984 2.2884 131.2 22.0 32.6 174
2020 09 18 05  20 43 37.510   -24 21 29.55  1.4988 2.2884 131.1 22.0 33.8 174
2020 09 18 06  20 43 35.814   -24 21 08.25  1.4991 2.2883 131.1 22.1 35.0 174
2020 09 18 07  20 43 34.123   -24 20 46.94  1.4994 2.2882 131.0 22.1 36.2 174
2020 09 18 08  20 43 32.435   -24 20 25.62  1.4998 2.2882 131.0 22.1 37.5 174
2020 09 18 09  20 43 30.752   -24 20 04.29  1.5001 2.2881 130.9 22.1 38.7 174
2020 09 18 10  20 43 29.073   -24 19 42.96  1.5005 2.2880 130.9 22.1 40.0 174
2020 09 18 11  20 43 27.399   -24 19 21.62  1.5008 2.2880 130.9 22.1 41.3 174
2020 09 18 12  20 43 25.729   -24 19 00.27  1.5012 2.2879 130.8 22.1 42.6 175
2020 09 18 13  20 43 24.063   -24 18 38.91  1.5015 2.2878 130.8 22.1 43.9 175
2020 09 18 14  20 43 22.401   -24 18 17.54  1.5019 2.2878 130.7 22.1 45.3 175
2020 09 18 15  20 43 20.744   -24 17 56.16  1.5022 2.2877 130.7 22.1 46.7 175
2020 09 18 16  20 43 19.091   -24 17 34.78  1.5026 2.2876 130.6 22.1 48.0 175
2020 09 18 17  20 43 17.442   -24 17 13.39  1.5029 2.2876 130.6 22.1 49.5 175
2020 09 18 18  20 43 15.797   -24 16 51.99  1.5033 2.2875 130.5 22.1 50.9 175
2020 09 18 19  20 43 14.157   -24 16 30.58  1.5037 2.2874 130.5 22.1 52.3 175